Theta_e
319 319 315 317 315 315 314 313 316 318 317 318 319 322 323 321 318 315 315 312 311 315 318 320 320 319 317 317 319 314 309 312 315 316 315 313 312 312 312 312 311 310 308 304 304 306 306 307 307 307 308 309 312 316 320 323 325 325 326 327 328 328 330 330 331 331 332 332 334 334 334 334 333 334 334 334 335 334 334 334 334 333 333 333 332 332
317 319 318 318 314 313 314 314 316 316 317 319 318 320 319 319 320 315 313 314 311 313 317 318 319 320 318 318 318 313 310 314 315 315 314 314 313 311 312 312 310 309 306 304 304 304 305 306 306 307 307 307 308 310 313 317 320 323 324 325 325 326 328 329 329 330 331 331 332 332 333 333 333 333 333 334 334 334 335 335 334 334 333 333 332 333
316 320 320 315 311 312 313 316 320 319 322 323 318 318 318 318 319 314 313 314 311 313 319 320 320 319 318 317 316 311 311 313 311 311 311 311 312 311 310 310 308 308 308 306 303 302 304 305 305 306 306 306 307 307 308 311 314 318 320 322 323 324 325 327 328 329 329 330 330 331 331 332 333 332 332 332 332 333 334 334 334 334 333 332 331 331
317 319 316 309 308 314 316 317 320 319 321 322 320 319 318 317 318 317 315 314 311 312 316 319 318 317 317 319 318 309 306 310 307 307 309 308 310 311 309 307 307 308 308 308 306 303 302 303 305 305 305 305 306 306 307 308 310 312 315 318 320 322 323 325 326 327 328 329 329 330 330 330 331 331 331 332 332 332 332 332 332 332 333 332 331 331
316 312 307 306 310 316 316 315 319 320 318 319 324 330 325 320 321 318 315 315 314 310 311 314 315 322 325 326 324 311 307 312 308 308 310 308 308 309 309 308 307 306 306 308 311 306 300 301 306 306 305 305 305 306 307 307 308 309 312 315 317 319 321 323 324 325 327 328 328 329 330 330 330 330 330 331 331 331 331 331 331 331 331 331 331 331
314 307 305 309 312 316 316 316 321 323 319 316 324 332 328 326 324 318 316 318 319 314 310 309 313 326 331 329 324 317 316 316 311 312 313 311 310 311 314 315 313 311 308 307 308 305 301 303 307 308 307 306 306 306 307 307 307 308 310 312 315 317 319 321 322 323 325 326 327 328 328 329 329 330 330 329 329 329 330 329 329 330 329 330 330 329
312 306 309 313 313 316 315 316 317 319 321 316 316 320 322 327 326 322 319 318 319 315 308 308 314 320 323 324 323 318 318 317 312 314 315 311 312 313 314 316 317 317 315 312 309 305 304 306 307 308 308 308 308 308 308 307 308 308 310 312 314 316 318 320 321 323 324 325 326 326 326 327 327 328 327 327 327 327 327 327 327 328 328 328 328 328
310 309 312 314 316 317 315 316 315 316 320 316 313 316 322 325 325 325 324 321 321 314 311 316 318 314 316 320 321 314 314 316 315 314 314 311 312 312 313 315 316 318 318 319 319 312 306 305 307 308 309 309 309 309 308 308 308 308 310 312 314 316 318 320 321 322 323 324 325 325 325 325 326 326 326 326 326 326 326 326 326 326 326 326 326 327
312 316 315 315 319 318 316 317 314 317 321 316 311 314 319 321 326 330 329 327 321 312 316 322 313 311 320 323 322 314 311 314 314 312 313 311 311 311 313 314 315 316 316 318 319 313 306 305 307 308 309 309 309 310 309 309 309 310 311 313 315 317 318 320 321 322 323 324 324 325 325 325 325 325 325 326 326 326 326 326 326 326 326 326 326 326
312 315 314 316 318 317 317 314 313 320 323 314 307 312 315 318 324 326 325 325 320 316 322 320 309 310 319 325 325 315 309 314 313 312 312 311 310 311 312 313 314 314 315 315 311 306 305 306 308 309 310 310 310 310 310 310 311 311 313 315 316 318 320 321 322 322 323 324 325 325 325 325 325 325 325 325 325 325 325 325 325 325 326 326 326 326
311 310 311 314 315 314 313 311 311 316 315 310 312 317 317 321 326 325 324 321 317 323 325 314 308 310 312 321 325 313 310 314 314 313 313 312 312 311 312 313 313 314 314 315 310 305 305 307 308 309 310 310 310 311 311 311 311 312 313 315 317 318 319 321 322 322 323 323 324 324 325 325 325 325 325 324 325 325 325 325 325 325 325 325 325 325
313 312 313 313 313 313 314 313 309 308 310 314 322 322 317 323 326 325 326 319 316 327 322 310 309 311 310 317 317 311 313 315 314 314 312 312 312 312 313 312 313 314 313 313 312 308 305 305 307 308 309 310 311 311 311 311 311 312 312 313 314 315 317 318 319 320 321 322 323 323 324 324 324 325 325 324 324 324 324 324 324 324 324 324 324 324
317 316 313 312 311 314 318 318 312 311 315 318 320 322 321 322 320 324 329 320 318 323 314 307 310 310 312 316 313 314 316 314 314 314 312 311 311 311 313 313 314 314 313 312 312 311 307 304 305 306 307 309 310 311 311 311 311 311 312 312 312 312 313 314 314 316 317 318 319 321 321 322 322 323 323 323 323 323 323 324 323 323 323 323 323 323
319 320 315 313 314 313 316 318 316 316 318 315 316 320 323 322 317 318 321 314 315 317 309 307 310 311 314 315 314 317 314 311 312 312 313 313 313 313 313 315 316 313 313 312 311 312 308 303 304 304 305 307 309 311 311 311 311 311 311 311 311 311 311 311 312 312 313 313 314 315 316 316 317 318 319 319 320 320 320 320 321 321 321 321 321 321
320 321 318 316 315 314 314 316 318 319 316 315 316 316 319 326 324 321 321 321 322 318 310 307 311 318 318 309 311 316 312 309 311 312 314 314 314 315 315 316 315 313 312 312 311 309 305 302 304 304 304 306 307 309 311 311 312 311 311 311 311 311 311 311 311 310 311 311 311 311 311 311 312 312 313 313 314 315 315 316 317 317 317 318 318 317
317 317 316 314 312 313 315 315 316 317 316 316 314 312 315 322 322 317 314 318 320 315 312 311 314 321 316 306 309 312 309 308 309 311 314 314 313 314 315 314 313 313 312 311 311 309 304 302 304 303 303 305 305 307 309 309 309 310 310 310 309 310 310 310 310 310 310 310 310 310 310 310 310 310 310 310 311 311 312 312 313 313 313 314 314 314
316 314 314 314 313 312 314 313 314 317 316 315 313 315 317 314 317 315 306 306 310 311 313 313 315 319 313 308 312 310 308 308 307 310 312 312 314 316 316 314 312 313 311 310 310 307 303 302 303 303 303 304 304 305 306 306 307 307 308 308 308 308 308 309 309 309 309 309 309 309 309 309 309 309 309 309 309 310 310 310 311 311 311 311 312 312
318 315 313 315 315 311 310 312 314 314 313 316 318 316 312 308 314 318 312 313 314 314 320 315 313 317 314 313 315 311 310 310 308 311 311 312 316 316 314 312 311 311 310 309 308 303 301 301 302 303 303 304 304 305 305 305 306 307 307 307 308 308 308 308 308 308 308 308 308 308 308 308 308 308 308 308 308 309 309 309 309 309 309 310 310 310
321 319 311 312 316 313 312 314 315 312 309 314 318 313 312 315 317 313 312 320 316 312 322 320 311 311 313 316 316 312 313 313 309 311 312 312 316 315 314 312 310 310 310 309 307 304 301 301 302 303 303 304 305 305 306 306 306 307 307 307 307 308 308 308 308 308 308 308 308 308 308 308 308 308 308 308 308 308 308 307 308 308 308 308 308 309
320 324 315 311 313 314 314 316 317 316 311 310 310 307 314 323 322 314 311 318 315 310 318 320 314 315 314 316 318 313 312 312 310 312 313 313 315 315 315 313 311 311 311 310 309 306 301 300 302 303 303 304 305 305 306 307 307 308 308 308 308 308 309 309 308 308 308 308 308 308 308 308 307 308 307 307 307 307 307 306 306 306 306 307 307 307
316 320 318 314 313 315 318 317 317 317 313 311 310 310 314 316 314 313 312 313 316 316 319 318 318 327 322 312 315 315 310 309 310 313 314 313 315 316 316 315 313 313 312 310 310 306 300 300 302 302 303 304 304 306 306 306 307 307 307 308 308 308 309 308 309 309 308 308 308 308 308 308 308 308 307 307 307 307 306 306 306 306 306 306 306 306
316 315 318 317 316 317 318 314 311 314 313 311 312 311 314 314 314 316 314 311 312 314 318 315 314 327 324 309 311 314 308 306 309 312 313 313 314 315 315 314 313 313 311 311 309 303 299 300 301 301 303 304 305 305 306 306 306 306 307 307 307 308 308 308 308 308 308 308 308 308 308 308 308 308 307 307 307 306 306 306 306 306 307 307 306 306
318 319 321 319 318 317 313 308 306 312 313 311 311 313 314 314 316 320 318 315 310 307 311 312 311 322 323 310 309 309 304 304 308 311 311 312 312 314 313 311 310 311 310 309 306 300 299 301 300 301 303 303 304 304 305 306 306 306 307 307 307 307 307 307 307 307 307 308 308 308 308 308 308 307 307 307 307 306 306 306 306 306 306 306 306 306
316 321 321 318 319 318 313 310 308 310 312 312 314 316 314 313 316 322 323 320 315 310 312 312 313 325 328 313 309 309 306 305 308 310 311 311 312 314 312 311 313 313 310 309 304 299 299 301 300 301 301 301 302 303 304 305 305 306 306 306 307 307 306 307 307 307 308 307 307 308 307 307 307 307 307 307 307 307 306 306 306 306 306 306 306 306
314 319 319 317 318 319 317 316 314 314 314 316 319 317 315 316 316 315 315 316 316 316 316 314 317 327 325 313 309 310 308 307 308 310 311 311 313 313 312 313 316 316 313 311 308 303 301 300 299 300 300 300 301 302 303 304 304 305 305 305 306 306 306 306 306 307 307 307 307 307 307 307 307 307 307 307 307 307 307 307 306 306 306 305 305 305
316 320 317 316 317 316 317 317 317 318 315 316 320 317 314 315 314 313 315 314 315 317 314 315 322 322 314 311 310 309 309 309 309 310 311 313 314 314 314 316 317 316 313 311 309 306 302 300 300 300 300 300 300 301 301 302 303 304 304 304 304 305 305 306 306 306 306 306 306 306 306 306 306 306 306 306 306 306 306 306 306 306 306 305 305 305
322 320 313 315 315 313 314 316 317 321 318 316 318 316 313 312 312 317 321 316 315 316 312 315 323 317 311 311 311 309 311 312 310 311 312 312 313 316 317 318 317 315 312 309 307 305 302 300 299 299 299 299 299 300 300 301 302 303 303 304 304 304 305 305 305 305 305 305 305 305 305 305 305 305 305 305 305 305 305 305 305 305 305 305 305 305
322 317 313 315 314 314 320 321 318 319 318 317 318 316 314 313 313 317 318 314 315 316 312 315 319 314 313 314 311 310 313 313 312 312 313 312 313 316 317 316 315 312 310 308 307 305 304 302 299 298 298 298 298 299 300 300 301 301 301 302 303 303 304 304 304 304 304 304 304 304 304 304 304 304 304 304 304 305 305 305 304 304 304 304 304 304
319 314 315 314 312 315 320 320 317 317 317 317 318 316 314 314 313 314 315 313 314 314 312 314 314 312 314 315 311 310 311 312 312 311 312 312 313 316 316 315 315 312 309 308 306 306 305 301 298 297 297 297 297 298 299 299 300 300 300 300 301 301 302 302 303 303 302 302 302 302 302 303 303 303 303 303 303 304 304 304 304 304 303 303 303 303
317 317 318 313 310 312 315 316 315 315 316 316 316 315 314 313 313 313 314 313 312 313 313 316 316 314 314 314 311 308 309 311 312 311 312 314 316 318 318 317 316 312 309 308 306 304 302 298 296 296 296 297 298 298 298 298 298 299 299 299 300 301 301 301 301 301 300 300 300 300 301 301 302 302 302 302 302 302 302 302 302 302 302 301 301 301
311 317 317 312 310 313 313 314 313 313 315 316 315 314 313 313 313 312 313 313 312 312 314 316 317 314 315 316 312 308 309 312 314 314 314 316 319 319 317 317 314 311 308 306 304 302 299 295 294 296 297 297 297 297 297 297 297 298 298 298 299 300 300 300 300 300 299 299 299 299 299 300 300 300 300 300 300 300 300 300 300 300 299 299 299 298
311 315 316 313 313 315 312 312 313 312 312 313 315 315 313 313 313 312 312 313 313 313 313 314 314 312 314 318 314 310 310 311 314 315 315 317 318 315 316 316 312 308 307 304 303 303 301 297 295 296 297 297 297 297 297 297 297 297 298 298 298 299 300 300 299 299 299 298 298 298 299 299 299 300 300 300 300 299 299 299 298 298 297 297 297 297
315 318 319 315 315 315 309 310 314 313 312 313 314 314 312 312 312 311 311 313 313 313 314 313 311 312 315 315 313 313 313 312 311 312 315 318 315 312 313 313 309 306 305 304 303 303 301 298 296 297 297 297 297 296 296 296 297 297 298 298 298 299 299 299 299 299 299 299 299 299 299 300 300 300 300 300 300 300 300 299 299 298 297 296 296 296
317 320 319 316 320 319 308 308 314 314 312 312 313 313 312 311 312 313 313 313 312 311 313 314 315 318 317 313 312 313 314 314 312 312 314 316 314 313 312 309 308 306 304 304 303 300 297 296 297 297 297 297 296 296 296 296 297 297 298 298 299 299 299 299 299 299 299 299 299 299 300 300 300 300 300 300 301 300 301 301 300 300 299 297 297 296
316 318 318 318 323 319 309 310 316 316 313 314 317 317 313 310 311 313 313 313 312 311 312 314 316 319 315 310 312 313 312 315 315 313 312 310 310 313 312 307 306 306 305 305 302 297 296 297 297 297 297 296 296 295 296 297 297 298 298 298 298 298 298 298 298 298 298 298 298 299 299 299 300 300 300 300 300 300 300 301 301 301 300 299 298 297
316 318 318 318 318 315 312 314 318 317 315 316 317 314 311 310 310 311 312 312 312 312 313 311 311 315 314 310 312 315 313 312 311 308 305 304 305 310 311 307 305 304 303 302 299 297 296 297 297 296 296 296 295 295 295 296 297 297 298 297 297 297 297 296 297 297 297 297 297 297 298 298 299 299 299 299 299 300 300 300 301 301 300 299 299 299
317 319 319 317 316 316 315 315 318 318 316 317 318 314 311 313 313 311 312 314 313 311 311 310 310 313 315 314 313 311 308 309 311 308 303 302 303 304 303 302 301 301 298 297 297 297 296 296 296 296 295 294 294 293 294 295 296 296 296 296 296 296 295 295 295 295 295 295 296 296 296 297 297 298 298 298 299 299 299 299 299 299 298 298 298 298
315 318 319 317 317 318 317 316 318 319 317 317 319 316 314 316 314 311 313 317 318 314 310 310 311 313 316 317 313 309 308 311 314 311 304 302 302 300 298 297 296 297 296 296 297 296 296 296 295 294 294 293 292 292 293 294 295 295 295 295 294 294 294 294 293 293 294 294 294 295 295 295 296 296 296 297 297 297 297 297 297 297 296 294 294 295
314 317 318 317 317 318 318 318 318 318 316 316 318 316 314 315 315 313 315 317 319 318 313 309 310 313 317 316 310 307 310 313 314 311 306 303 301 298 298 296 294 295 296 296 296 296 295 295 294 293 293 292 291 291 292 293 294 293 293 293 293 292 292 292 291 291 292 292 293 293 293 294 294 294 295 295 295 295 296 296 296 296 295 293 292 292
313 315 316 316 317 317 317 317 317 317 316 315 316 315 312 313 314 317 319 317 317 320 317 312 311 313 314 311 306 307 311 314 315 311 305 301 298 295 295 296 294 295 295 295 295 295 294 293 293 292 292 291 290 291 291 292 292 292 292 291 291 290 289 289 289 289 290 291 292 292 292 292 293 293 293 294 294 295 295 296 296 296 294 293 292 291
313 314 313 314 316 316 316 318 317 318 318 317 315 313 311 312 313 317 319 318 318 319 314 311 313 314 311 307 305 308 311 310 310 307 301 299 298 295 294 295 294 294 294 294 294 293 292 292 292 291 290 289 289 290 290 291 291 290 290 289 289 288 287 287 287 288 289 290 291 291 291 291 291 292 292 292 293 293 294 294 295 295 293 292 292 291
313 314 314 314 314 314 315 317 316 317 319 316 311 307 309 312 315 317 317 314 317 319 313 309 313 314 310 306 306 308 307 302 301 301 299 299 300 296 293 293 294 293 293 292 292 292 291 291 291 290 289 289 288 289 289 288 288 288 287 287 287 286 285 285 286 287 288 289 290 290 290 290 291 291 291 291 291 291 292 293 293 293 292 290 290 289
314 314 314 314 314 315 315 315 316 317 314 310 309 308 309 314 320 323 316 308 307 313 313 310 312 311 308 306 305 304 302 298 298 299 298 298 298 294 292 293 293 292 292 291 290 290 290 289 289 288 288 287 287 287 286 286 285 285 285 285 285 284 284 284 284 285 287 288 289 289 289 290 290 290 290 290 289 289 290 291 292 291 291 289 288 288
314 314 315 315 314 315 315 314 317 318 311 308 312 313 310 313 319 322 319 312 306 305 307 311 310 305 304 305 303 300 299 298 298 298 297 297 296 293 291 292 292 291 290 289 288 288 287 287 286 286 286 285 284 284 283 283 282 282 283 283 283 283 283 283 283 284 286 287 287 288 288 288 289 289 289 289 288 287 288 289 289 289 289 287 286 286
313 313 315 316 313 314 316 316 317 318 310 307 311 312 310 312 313 312 314 316 311 304 305 310 308 302 300 301 299 298 299 298 298 297 297 297 296 292 290 290 290 289 288 286 286 286 285 284 284 284 284 283 282 281 280 280 280 280 281 281 282 282 282 282 283 283 284 286 286 286 287 287 288 288 288 287 286 285 286 286 286 286 287 286 284 284
311 310 311 314 314 312 312 313 314 314 310 307 307 305 305 307 307 306 311 316 312 305 303 306 305 300 298 299 299 299 299 297 297 296 296 296 294 291 289 289 288 287 286 284 283 283 282 281 281 281 281 281 280 279 279 279 279 278 279 280 281 281 281 280 280 281 281 283 284 284 284 285 286 286 286 285 284 283 283 284 283 284 285 284 284 284
308 308 308 311 314 313 312 314 314 311 308 307 304 302 302 303 301 302 308 312 308 303 301 300 299 297 297 298 300 300 297 296 296 296 294 294 293 289 287 287 286 285 283 282 280 279 279 279 279 278 278 278 279 279 279 279 279 278 278 279 279 279 278 277 277 277 277 278 279 280 281 280 281 282 282 282 281 281 281 282 282 282 283 283 283 284
307 307 309 311 312 311 311 311 308 303 302 302 302 304 307 307 302 299 300 301 300 298 297 296 295 297 299 298 298 298 296 294 295 295 293 292 290 286 285 285 283 281 280 279 278 277 277 277 277 275 275 276 276 277 277 278 279 279 279 278 277 276 276 276 275 275 275 274 275 276 277 277 277 278 279 279 279 280 280 281 282 282 283 283 284 284
305 306 309 311 309 307 307 305 302 301 303 304 303 303 303 302 300 298 295 295 296 297 296 294 292 292 296 297 296 296 295 293 292 292 291 290 287 283 282 281 279 278 277 276 276 275 275 275 274 273 272 273 273 274 276 278 279 278 277 276 276 275 274 274 274 273 273 274 274 275 275 276 276 277 277 278 278 279 279 280 281 282 283 284 284 285
303 306 309 309 308 308 308 307 304 305 309 309 305 302 299 296 297 298 296 295 296 296 296 295 291 287 288 290 292 294 295 292 288 287 287 285 282 280 279 277 276 275 275 274 274 273 273 272 271 270 270 271 272 274 275 276 276 275 275 275 275 274 273 272 272 272 272 273 273 273 274 274 275 276 277 277 278 279 279 280 281 282 282 283 284 284
304 307 307 308 309 308 308 308 305 304 309 311 306 302 297 293 296 299 298 295 295 293 293 295 295 290 287 285 284 288 290 287 283 283 283 280 277 276 275 274 273 273 272 272 272 271 270 269 269 269 270 271 272 272 272 272 273 273 274 274 273 272 271 271 271 271 271 271 272 272 273 273 274 275 276 277 277 278 279 279 280 281 282 283 284 284
Wind_Speed
3 5 4 5 7 8 7 6 6 6 7 9 6 5 4 4 2 4 3 4 1 3 3 3 3 8 9 11 13 8 1 3 8 7 7 7 6 6 6 7 7 7 9 11 13 15 15 15 15 15 17 19 23 27 29 30 32 33 33 32 32 32 30 29 28 28 28 29 29 29 30 31 30 30 30 30 31 31 31 31 31 31 31 32 31 29
4 5 7 6 7 8 7 7 8 7 7 6 6 5 2 2 2 3 2 3 2 2 2 1 3 9 9 10 11 7 4 6 7 6 7 7 7 6 6 8 7 6 8 9 13 16 16 15 14 14 15 17 20 22 25 28 30 31 31 31 32 31 30 30 30 29 30 31 30 29 30 30 29 29 30 31 31 31 30 30 30 30 30 31 31 31
3 4 7 5 6 9 7 6 9 8 7 6 4 5 2 2 2 2 3 4 4 1 2 3 4 8 10 10 10 7 5 6 5 5 6 6 7 7 6 7 7 7 8 7 9 13 15 14 12 13 14 17 19 20 20 22 25 27 28 30 31 30 30 30 30 30 30 30 29 29 28 27 27 27 28 30 30 30 30 30 29 29 28 28 28 29
4 5 5 6 9 11 7 5 10 8 5 4 4 5 3 2 2 1 2 4 3 2 1 1 3 7 7 7 7 4 4 5 6 6 6 5 7 8 7 6 7 8 8 8 8 10 14 14 11 10 11 12 15 17 18 19 20 22 25 26 27 28 28 28 28 29 29 28 27 27 27 26 25 25 26 27 28 30 30 31 30 30 30 30 30 31
4 4 2 7 7 9 8 4 8 7 3 1 3 5 4 4 4 3 1 1 2 3 2 2 2 5 4 5 6 4 4 5 5 5 4 3 4 6 6 5 6 6 6 7 7 8 11 13 11 8 6 7 9 12 14 15 17 18 19 21 22 24 25 26 26 27 27 27 26 25 25 25 24 24 24 25 26 28 29 31 32 32 31 31 31 31
2 2 3 8 5 7 9 4 5 7 4 0 3 6 7 7 6 3 2 3 3 3 3 4 3 4 5 4 6 4 7 7 6 6 6 6 5 4 4 5 4 4 4 5 6 6 8 11 10 8 3 2 4 6 8 10 12 13 15 16 17 19 21 23 24 24 25 26 26 25 25 25 24 24 25 27 28 28 29 30 31 31 31 30 31 30
1 2 3 7 6 7 7 5 6 6 7 2 4 5 7 8 9 7 5 4 2 1 2 4 3 3 6 6 6 4 6 7 6 6 6 6 6 6 5 5 5 4 3 2 3 5 7 10 11 10 8 5 2 1 3 5 7 9 10 12 13 15 17 18 20 21 23 24 26 26 27 27 26 26 27 28 28 27 28 29 29 29 29 30 30 30
3 3 4 6 6 6 6 5 6 7 8 3 3 6 8 9 8 7 6 4 1 2 2 4 3 1 4 6 6 4 3 6 7 6 7 6 6 7 6 6 6 5 4 4 4 5 7 10 10 10 10 9 7 5 3 3 4 5 6 8 9 11 12 14 16 18 20 22 24 25 26 26 26 26 27 25 24 25 26 26 27 28 28 29 29 29
3 5 6 6 6 4 4 4 5 8 6 3 3 6 7 8 7 5 6 4 1 1 2 5 4 1 5 6 6 4 1 3 5 5 6 7 6 7 6 7 6 5 5 4 3 5 7 9 10 11 11 12 11 10 9 7 5 4 4 4 6 7 8 10 12 14 17 18 20 22 23 24 25 26 26 25 24 24 23 24 26 26 27 27 27 28
1 5 7 6 5 5 3 1 1 4 4 4 6 7 7 7 6 5 5 3 3 2 3 4 3 0 4 6 4 3 0 3 3 2 4 5 5 5 6 6 6 6 5 4 4 5 7 9 10 11 13 14 14 13 12 11 9 8 6 5 3 2 4 5 8 10 12 14 16 19 20 22 23 24 25 25 25 25 24 25 26 26 26 27 27 27
2 1 1 2 3 5 4 4 3 2 5 8 6 7 7 6 5 4 3 4 4 2 5 4 2 0 2 5 4 2 2 4 4 1 3 4 5 5 5 5 5 5 5 5 6 9 12 14 15 16 16 15 15 14 13 13 12 11 10 8 6 3 1 1 3 5 7 10 13 15 18 20 22 23 23 24 25 26 26 27 28 27 27 27 27 27
3 2 0 0 2 5 6 6 5 3 5 7 4 6 5 4 4 4 4 4 2 4 6 4 2 1 3 4 2 3 4 4 6 5 5 5 6 5 5 5 5 4 4 5 5 8 12 16 18 21 20 18 17 16 15 15 14 13 12 11 9 6 4 2 0 2 4 7 9 12 15 17 19 21 22 24 25 25 25 27 27 27 27 27 27 27
3 1 1 1 0 4 6 6 4 4 4 5 5 6 5 2 3 2 3 1 2 5 3 2 1 2 5 6 5 6 6 5 6 4 3 1 3 4 5 5 4 4 4 5 6 6 9 12 16 19 21 21 21 19 17 16 15 14 13 12 10 8 6 4 2 2 3 5 8 10 13 15 17 19 21 23 24 25 25 26 26 26 26 26 27 27
1 3 2 2 1 2 5 6 3 2 1 4 6 5 5 3 3 2 3 1 3 4 2 3 2 1 4 6 7 9 8 6 6 5 4 4 2 3 4 4 4 4 5 5 6 6 7 11 14 17 20 21 22 21 19 18 17 16 15 13 11 9 8 6 5 4 4 5 6 8 10 13 14 17 19 20 22 23 23 24 25 26 26 26 27 27
3 3 3 3 2 2 3 4 5 6 3 2 3 5 5 5 4 4 4 3 3 2 2 3 2 3 3 3 5 8 6 4 4 5 4 4 4 4 4 3 2 4 5 5 6 6 8 12 16 18 20 22 23 22 22 21 20 19 18 16 15 13 11 10 8 7 6 5 5 6 8 10 12 14 16 18 19 20 21 23 24 25 25 26 27 26
4 3 3 2 3 2 3 2 3 7 3 1 1 5 3 4 5 4 3 5 4 1 1 2 3 4 3 3 4 4 3 1 1 3 3 3 3 1 1 2 3 4 4 4 6 6 8 13 17 18 20 22 23 25 25 24 22 21 20 18 17 16 14 12 11 9 8 7 6 5 6 7 9 10 13 14 15 17 18 20 21 23 23 24 25 25
3 1 3 3 3 2 1 2 1 2 3 2 2 3 4 3 8 6 2 1 3 2 2 1 3 5 3 3 5 2 2 2 3 3 4 4 3 5 5 4 4 4 5 5 5 5 8 13 16 19 21 22 24 26 25 25 24 23 22 21 20 18 17 16 14 13 12 10 9 8 7 7 7 8 9 11 12 13 15 16 18 19 20 21 22 23
5 2 3 2 2 2 1 1 3 3 3 5 3 5 4 3 5 5 2 3 4 1 3 1 3 4 1 2 4 2 5 2 1 5 5 5 6 7 5 3 2 3 4 4 5 6 9 13 16 19 22 23 25 25 25 25 24 24 24 22 22 21 20 19 18 17 16 15 14 13 11 10 9 9 9 9 10 11 12 14 14 16 17 18 19 20
5 3 3 2 2 2 4 3 3 3 4 3 4 3 4 3 2 2 3 2 1 2 4 3 3 3 4 4 2 5 9 5 4 6 7 8 8 7 5 3 2 1 3 4 4 5 8 13 16 19 21 23 24 25 25 24 24 24 24 23 23 23 22 21 20 20 19 19 18 17 16 15 13 12 12 11 11 12 12 13 14 14 15 16 16 17
4 4 1 1 1 1 3 1 4 2 3 3 2 2 2 2 4 2 3 4 3 3 2 3 3 3 6 6 6 10 10 9 9 7 7 9 8 7 6 5 4 3 4 5 5 5 8 14 17 18 20 22 23 24 24 24 24 24 23 22 22 22 21 21 21 21 21 21 20 20 19 18 17 16 15 15 14 14 14 14 14 14 14 15 15 16
3 3 3 1 3 1 2 2 6 6 3 2 3 4 2 2 2 2 1 2 4 4 3 1 3 5 6 4 7 9 8 9 11 10 9 8 8 7 6 6 5 5 5 5 5 5 9 13 16 18 19 20 22 23 23 23 23 23 23 22 22 22 22 22 21 21 21 21 21 21 21 20 20 20 19 18 17 17 16 16 16 15 16 16 15 15
2 3 5 2 1 2 3 3 3 4 4 4 4 5 6 4 4 3 1 1 2 3 4 4 3 7 6 3 5 6 6 9 11 12 11 8 8 8 5 6 5 4 5 4 4 6 9 13 15 17 18 20 22 23 23 23 23 23 23 23 23 22 23 23 22 22 21 21 21 22 22 21 21 21 21 21 20 20 20 19 19 18 18 18 17 16
3 4 5 2 3 3 3 3 2 3 1 2 2 3 5 4 4 6 5 3 2 2 2 3 1 7 6 3 5 5 5 7 7 8 10 9 8 7 6 5 2 3 4 4 5 8 11 12 14 16 19 20 21 22 23 23 23 24 23 23 23 23 23 22 22 22 22 23 23 23 23 24 24 24 23 23 23 23 23 22 22 22 21 21 21 20
2 4 4 1 3 2 4 4 1 0 1 1 3 2 4 3 3 5 5 4 4 4 3 3 1 6 6 3 3 4 4 4 3 4 8 8 6 6 6 3 1 3 4 5 6 8 11 12 13 16 17 18 19 20 21 22 22 22 22 22 22 22 22 21 21 22 22 23 24 24 24 24 25 25 25 26 26 26 26 25 25 25 24 24 24 23
3 3 5 3 2 3 4 4 3 3 1 3 3 2 4 4 6 4 2 4 2 5 6 5 4 6 5 4 3 1 2 4 4 4 5 7 6 6 6 2 2 3 5 6 5 6 9 10 12 13 14 16 17 17 19 20 20 20 21 21 21 21 20 21 21 21 22 23 23 24 24 25 25 25 26 26 26 27 27 27 27 26 26 26 26 26
4 3 5 6 6 5 5 4 4 3 3 2 2 4 5 6 8 5 3 4 3 4 6 6 5 5 5 4 4 1 5 6 6 5 4 5 6 6 5 2 3 4 5 5 5 5 5 7 9 11 12 13 13 14 16 18 19 19 19 20 20 20 20 20 20 21 22 23 24 24 25 25 26 26 26 26 26 26 26 26 26 26 26 26 27 27
3 2 5 7 10 10 9 7 4 6 6 4 4 7 8 7 8 6 5 4 5 3 3 6 5 4 5 3 1 6 8 7 7 6 6 6 6 5 4 2 2 5 5 3 3 3 3 4 6 7 9 9 10 12 15 17 18 18 18 19 19 19 19 19 20 21 22 23 24 25 25 26 26 26 26 26 26 27 26 26 26 26 26 26 26 27
4 4 6 9 11 8 5 5 5 7 8 8 8 9 9 8 8 8 7 8 6 6 7 8 7 6 7 6 7 10 9 7 8 8 8 8 6 5 3 3 4 5 5 3 2 1 1 1 2 3 4 4 7 11 15 17 17 17 17 18 18 18 18 19 19 21 22 23 23 24 25 26 26 26 26 27 27 28 28 28 28 27 27 26 26 26
5 6 6 7 9 5 3 3 5 7 7 8 10 12 12 11 12 12 14 11 9 8 11 6 10 10 9 7 10 12 12 11 11 9 7 6 4 4 5 6 5 4 3 3 2 2 3 4 2 2 1 3 7 13 15 16 16 16 17 17 17 18 18 18 19 20 21 23 23 24 25 26 27 27 27 28 29 30 30 30 29 29 28 28 27 26
4 4 4 6 7 5 1 1 3 5 5 6 9 12 14 15 16 17 18 15 13 12 9 7 11 13 8 9 13 13 10 7 5 5 4 5 5 5 5 5 5 5 4 4 4 4 5 5 4 3 2 7 12 14 14 14 14 15 16 17 18 18 19 19 20 20 21 22 23 24 25 26 27 28 28 29 30 31 31 31 31 31 30 30 29 28
3 3 3 6 5 4 1 1 3 4 4 4 6 8 11 13 15 17 18 13 10 11 5 6 7 10 5 6 10 9 5 4 4 5 6 5 5 6 6 6 6 6 5 5 5 5 6 5 3 3 7 11 12 13 12 13 14 15 16 17 18 19 20 20 20 20 21 21 22 23 25 26 28 28 29 30 30 31 31 31 31 31 31 31 31 30
3 2 2 5 4 5 3 2 4 5 5 1 3 8 12 13 13 14 11 8 9 12 8 5 7 9 4 6 7 5 6 6 7 8 7 6 5 7 8 8 7 7 6 6 6 6 4 3 3 7 10 11 11 12 13 13 15 16 17 18 18 19 20 20 20 21 22 22 23 25 27 29 30 31 32 32 33 33 33 32 32 32 32 32 31 31
5 5 2 4 6 4 4 2 6 7 4 3 8 12 16 14 11 7 5 6 11 12 9 8 11 8 6 8 8 5 6 8 10 9 7 6 6 7 8 9 9 8 7 7 5 3 3 4 6 8 9 10 11 12 12 13 15 17 17 17 18 20 21 21 21 22 24 25 26 28 30 31 32 33 34 34 35 35 35 35 35 34 34 34 33 33
5 6 4 4 4 3 5 1 6 4 5 8 6 9 15 16 13 10 10 13 14 11 6 4 5 4 7 10 11 10 10 8 6 7 6 5 7 7 7 8 8 7 6 5 3 3 4 5 7 8 9 10 10 10 11 13 14 15 16 17 19 20 21 22 22 23 25 26 27 29 30 31 32 33 34 35 35 36 36 37 37 37 37 36 36 36
6 6 4 2 4 2 1 2 4 6 9 6 4 2 10 14 15 15 15 13 11 10 8 7 6 6 8 10 9 10 9 3 3 3 4 5 8 9 8 7 7 6 5 4 3 3 4 6 7 8 9 10 10 11 12 13 14 15 16 17 19 21 22 22 23 25 26 27 29 30 31 32 33 33 34 35 35 36 37 37 38 39 39 38 38 37
7 6 3 2 3 3 2 4 6 6 5 4 5 3 2 5 7 8 10 10 9 11 11 14 13 8 7 8 6 3 2 2 3 2 1 2 5 7 8 7 6 5 6 5 5 5 5 5 6 7 8 9 10 11 12 13 14 16 16 18 20 21 22 23 24 26 28 28 30 31 32 33 34 34 35 35 35 36 36 36 37 38 38 39 40 40
7 6 3 3 3 3 4 4 3 4 5 5 5 4 3 6 8 8 7 9 10 12 13 14 12 7 7 7 4 1 4 4 1 2 2 2 3 5 7 7 8 7 7 7 6 6 6 5 6 6 7 8 10 12 13 13 15 16 17 18 20 22 23 24 25 27 28 29 29 30 31 32 34 35 35 36 36 36 36 36 37 37 37 38 39 40
4 3 4 4 3 4 4 2 1 3 7 7 6 5 5 7 9 10 5 6 8 10 13 13 10 9 8 6 5 4 5 4 4 6 5 5 3 4 6 7 9 9 8 8 7 7 7 6 6 6 7 9 11 13 14 14 15 17 18 19 21 22 23 25 26 27 28 29 29 30 31 31 33 34 35 36 36 36 37 37 37 36 36 36 37 39
2 2 4 4 2 3 4 4 5 6 7 5 6 6 5 7 9 9 2 6 6 8 12 12 9 10 10 9 8 7 6 5 8 7 6 7 6 5 6 7 9 9 9 8 7 7 7 6 7 8 10 12 14 15 15 15 16 17 18 19 20 21 22 23 25 26 27 28 29 29 30 31 32 33 34 36 36 36 36 37 37 37 36 36 36 37
3 2 3 4 4 5 6 5 4 4 4 4 6 5 5 7 10 9 1 7 5 8 11 12 12 12 12 11 9 9 9 8 8 6 8 9 7 6 7 7 9 10 9 8 7 6 6 7 8 11 13 15 16 15 15 15 16 16 18 19 19 20 21 22 24 25 26 27 28 29 30 30 32 33 33 35 36 36 36 37 37 37 37 37 36 37
3 2 4 6 6 6 8 6 3 4 5 5 5 5 6 6 6 6 8 7 6 8 7 10 13 12 10 11 9 8 7 4 3 6 9 10 8 7 8 10 10 9 9 8 6 5 6 7 9 11 13 14 14 14 15 15 15 16 17 18 19 19 20 22 23 24 25 26 27 28 29 29 30 32 33 33 34 35 36 35 35 36 36 36 36 36
4 4 4 6 6 5 6 5 4 5 5 4 4 2 4 5 4 7 7 2 5 6 3 5 9 7 8 10 9 6 3 3 5 9 10 9 8 7 8 11 11 10 9 7 6 6 6 7 9 10 11 12 12 13 13 13 14 15 17 17 18 19 21 22 23 24 25 26 27 28 29 30 30 31 32 33 33 34 36 36 34 35 35 34 35 35
6 5 3 5 6 4 4 6 5 5 3 8 9 2 2 5 5 6 3 1 2 5 4 4 5 5 7 9 6 5 6 6 7 10 9 8 7 8 9 11 11 10 9 7 7 6 6 7 9 9 11 11 11 11 11 12 13 15 16 17 17 20 22 23 23 24 25 26 28 29 30 31 32 33 33 34 33 33 35 36 35 35 34 33 32 33
5 5 3 4 5 5 6 7 5 3 4 9 9 5 7 7 4 4 6 3 2 3 4 4 4 5 8 9 8 9 9 8 8 9 8 7 7 7 9 11 11 10 9 8 6 5 6 7 9 10 9 9 10 10 10 10 12 14 16 17 19 21 23 23 23 25 26 28 29 31 32 33 34 35 35 34 33 33 34 35 35 35 34 32 30 30
5 5 4 3 4 5 5 4 3 3 5 6 4 2 4 5 2 4 6 4 3 4 4 5 5 6 6 9 10 9 9 9 9 8 8 7 6 7 9 10 10 10 8 6 4 4 5 7 8 9 9 9 10 10 10 11 13 15 18 19 20 21 23 24 25 26 28 30 31 32 33 35 35 35 35 33 31 31 33 34 34 34 34 32 30 28
2 2 2 3 3 4 2 2 3 2 4 4 1 2 0 1 1 3 5 3 4 6 5 5 7 8 9 10 10 8 8 9 9 7 7 7 6 7 9 10 9 7 5 5 4 4 5 6 6 7 9 11 12 12 14 14 14 16 19 19 20 20 22 24 26 28 29 31 33 34 34 35 36 36 35 34 32 31 32 32 31 33 34 32 30 29
3 2 2 2 4 5 4 4 4 3 4 4 2 1 1 2 1 2 3 3 4 5 5 5 7 9 9 10 11 10 9 9 9 7 6 6 6 6 9 9 7 5 3 4 4 4 5 5 5 7 11 13 14 15 17 17 17 17 17 18 18 19 21 23 25 27 29 30 32 34 33 33 34 35 35 34 33 31 32 32 30 30 32 32 30 29
2 3 2 2 4 4 4 4 3 3 5 4 2 2 3 4 3 1 1 2 4 5 5 5 6 8 8 7 10 12 10 8 9 8 6 5 5 6 8 7 5 2 1 2 3 4 4 5 6 9 11 13 15 17 18 18 18 18 18 18 19 19 21 22 21 23 27 28 29 29 29 29 30 30 31 32 32 31 31 32 30 30 32 32 30 29
2 3 3 4 4 1 3 3 1 3 5 5 6 7 5 4 4 4 3 5 7 8 7 6 5 5 7 7 9 11 11 7 6 8 7 5 5 6 7 6 3 1 1 2 2 3 3 5 7 9 10 12 14 16 18 18 18 18 18 19 18 18 21 22 21 22 24 25 24 23 24 25 26 26 27 28 29 30 30 30 30 30 33 35 32 29
3 3 3 4 4 3 5 6 5 3 3 6 8 9 6 5 6 7 6 6 8 9 10 10 7 6 7 7 8 11 11 7 6 8 7 6 7 8 7 5 3 2 1 2 3 3 5 6 7 8 10 12 15 17 18 18 18 19 18 16 16 19 22 22 21 21 21 21 20 21 22 23 24 24 25 26 27 29 32 32 30 28 30 34 34 31
4 5 5 5 5 6 8 8 7 6 5 6 6 8 8 7 8 9 9 8 8 8 10 12 10 7 6 6 6 10 11 8 9 10 7 6 9 9 7 5 3 2 1 2 3 4 6 7 8 10 13 15 16 17 17 17 18 17 15 15 17 20 21 20 20 21 21 20 21 22 22 23 24 25 25 26 27 28 31 34 35 32 30 29 29 30
Wind_Direction
90 116 158 177 179 182 174 148 135 137 125 130 126 109 146 165 211 247 257 298 89 136 256 248 266 283 277 278 279 279 311 268 271 273 272 271 266 267 262 261 261 254 260 277 283 276 271 270 265 260 256 250 247 245 242 239 238 238 237 235 235 235 231 225 223 223 223 224 225 227 230 234 236 239 240 242 244 245 246 247 247 249 251 251 251 250
82 142 204 211 181 158 137 122 109 96 85 97 124 125 139 177 202 251 248 316 355 151 252 359 325 282 268 270 270 275 291 264 257 257 269 277 272 270 267 270 271 267 277 284 283 282 280 277 271 262 255 247 244 243 241 240 240 239 237 236 237 236 232 228 224 222 222 224 224 225 229 232 235 237 239 241 244 245 246 248 248 247 247 246 245 245
108 197 225 207 144 109 88 96 96 88 88 86 109 128 148 213 215 285 299 335 6 110 260 345 336 282 272 272 271 276 270 263 267 260 264 275 277 281 278 279 286 286 293 294 290 294 294 289 281 269 258 250 247 245 244 243 242 240 238 239 238 236 234 232 228 224 225 226 227 229 232 234 236 239 242 243 246 247 248 248 248 249 249 249 248 248
167 245 234 173 139 112 83 79 96 88 80 91 111 131 173 235 152 198 272 331 10 74 258 290 301 286 293 303 295 287 271 282 298 282 268 257 257 271 278 282 283 281 290 297 297 300 303 307 305 289 271 261 252 247 246 245 243 242 240 240 238 236 236 234 232 229 228 228 230 232 235 238 239 242 245 246 248 248 248 249 249 249 251 252 252 252
173 279 180 134 128 120 110 101 114 107 69 68 145 141 165 192 172 189 209 339 359 29 28 36 335 299 326 341 302 301 333 319 322 335 334 309 266 271 292 295 273 266 272 284 293 301 309 320 331 328 290 269 261 254 251 249 248 247 244 243 240 239 238 236 235 233 230 229 229 230 233 236 238 241 242 243 244 244 245 247 249 250 250 251 251 251
181 295 140 129 112 115 123 147 165 139 114 226 209 176 171 166 154 141 90 70 45 12 356 31 18 293 319 325 273 299 348 333 339 13 10 346 338 340 340 337 318 300 276 260 274 295 317 336 356 17 16 289 274 260 251 247 247 247 245 243 240 239 238 236 235 234 231 229 228 227 227 229 231 234 237 238 240 242 244 246 248 250 251 251 252 252
144 9 91 127 129 123 130 173 200 151 123 176 221 168 147 130 125 130 116 88 96 215 326 46 116 252 316 311 271 309 341 325 338 12 9 353 356 5 357 347 346 347 342 310 303 320 344 359 13 31 42 43 30 287 226 222 227 233 237 237 236 236 236 235 234 233 231 229 229 227 228 229 229 232 238 241 243 246 249 251 253 253 253 253 253 253
123 95 74 105 114 122 141 188 204 148 129 188 210 129 128 122 129 138 113 95 167 212 326 19 94 186 301 280 275 315 352 344 352 1 2 3 2 359 356 353 352 348 346 347 350 356 5 13 22 33 42 51 55 61 95 140 172 197 216 225 230 234 234 234 233 232 232 232 232 231 231 233 234 238 244 249 251 253 255 257 258 259 258 258 257 256
105 153 171 136 114 140 178 222 197 137 115 231 194 125 123 118 122 120 97 93 40 46 295 334 38 145 266 275 306 346 19 339 346 359 1 356 352 356 1 1 357 349 343 339 339 347 1 18 34 45 52 60 66 68 74 83 97 125 158 188 212 226 232 234 235 236 237 238 239 239 237 238 242 246 251 254 257 258 259 259 261 262 262 262 261 260
69 182 187 144 131 174 187 318 214 125 110 180 147 101 83 77 81 81 86 103 54 47 232 285 12 150 264 284 308 1 77 242 262 320 337 328 340 358 6 7 3 2 2 1 10 21 30 38 48 59 65 69 71 71 72 75 77 84 95 107 136 188 222 235 239 242 244 244 244 245 244 246 250 253 255 257 258 259 260 261 262 262 263 264 263 263
315 260 197 119 138 168 140 73 35 70 124 139 119 83 69 42 40 53 51 83 67 327 248 264 324 134 272 284 264 225 206 189 180 134 353 355 15 18 14 14 7 8 15 23 39 50 56 60 65 69 71 72 75 76 77 77 76 77 79 81 85 93 117 214 240 246 249 248 248 249 250 252 255 258 258 257 258 259 260 261 263 264 265 265 265 265
0 29 330 34 125 128 106 72 39 35 95 106 98 97 87 13 11 27 2 43 98 252 259 275 302 168 216 264 278 267 261 205 161 123 72 39 28 22 10 7 0 357 9 32 49 53 56 57 58 61 63 67 72 73 72 72 72 73 73 73 75 74 73 70 5 259 258 256 254 256 256 258 261 262 261 260 262 264 264 265 268 268 268 267 267 266
36 57 293 1 220 149 116 85 41 351 15 76 111 113 100 20 16 14 318 350 196 239 269 288 270 202 231 249 262 269 260 226 201 172 123 55 14 12 2 356 348 350 13 44 55 53 52 52 51 54 56 59 64 66 68 71 71 72 72 72 73 70 66 57 30 326 284 275 272 269 266 267 269 269 267 267 268 271 271 272 273 273 272 272 271 270
12 304 300 93 253 212 138 126 133 241 237 132 144 134 131 119 90 226 262 288 247 254 282 285 268 241 267 264 241 236 236 218 216 219 210 223 258 306 321 319 319 350 24 46 56 57 54 54 55 57 57 57 61 64 69 72 72 73 73 73 73 68 61 52 34 13 344 318 300 289 282 281 279 276 276 275 275 277 277 277 276 276 276 276 276 277
165 261 234 161 216 202 161 168 150 140 133 174 170 126 147 157 144 194 211 188 220 258 296 292 264 186 208 257 223 224 246 251 238 249 257 254 255 269 289 305 337 20 33 41 58 61 55 58 61 62 61 61 61 64 68 70 72 73 73 73 73 71 66 61 53 44 31 13 345 318 303 296 291 288 286 284 284 284 284 283 282 281 281 280 281 282
159 235 268 281 277 150 160 236 117 107 110 237 123 103 162 183 135 139 174 169 165 127 297 260 234 216 215 266 278 269 280 308 237 249 268 262 255 244 122 88 63 50 43 47 61 60 55 61 63 63 65 65 65 66 67 68 70 72 73 74 74 72 71 69 66 59 51 42 27 3 340 323 311 303 299 296 296 294 292 290 287 287 286 285 285 285
156 254 321 338 351 64 163 238 77 108 165 155 123 165 207 161 114 114 152 66 83 143 256 218 240 292 312 269 307 347 152 81 79 165 191 196 158 114 117 105 74 59 51 51 60 60 58 60 62 64 65 65 66 67 67 67 67 69 70 71 71 70 67 65 64 59 54 50 44 33 19 2 345 332 322 315 313 307 302 298 295 294 293 291 291 290
153 121 342 26 70 19 290 142 58 36 111 122 171 198 176 113 99 109 122 21 43 206 276 303 225 287 307 233 322 84 162 153 107 165 171 170 142 127 137 128 83 53 47 49 58 61 60 59 61 64 64 65 67 68 68 67 67 68 67 66 66 64 60 58 55 53 51 49 48 44 39 32 21 10 359 345 337 328 319 316 313 308 305 304 301 297
126 110 338 24 128 307 345 83 95 20 47 119 181 171 113 130 164 104 126 141 105 213 277 309 274 259 205 217 258 183 187 194 185 170 157 157 150 145 155 157 148 80 63 65 69 64 60 58 58 61 64 65 67 68 68 68 68 67 65 64 62 59 55 53 50 49 47 46 47 45 43 42 37 30 22 12 2 351 342 338 334 325 320 317 311 305
109 119 218 325 292 298 6 90 177 196 18 40 109 116 73 127 161 155 145 160 165 183 243 312 323 256 225 215 199 197 195 176 166 166 165 165 159 161 166 164 164 132 92 72 65 58 53 55 56 59 62 63 64 66 67 67 67 65 64 63 61 58 55 53 49 47 45 44 44 42 41 39 36 33 28 22 15 5 358 352 346 339 332 328 323 316
88 118 160 324 328 219 171 218 195 176 144 106 137 164 170 70 116 157 89 111 139 153 177 233 296 264 247 215 196 202 196 176 167 162 171 174 166 173 178 172 163 126 97 76 68 62 54 56 56 58 62 64 64 64 64 64 63 62 61 59 56 54 52 51 48 46 44 43 41 38 36 33 31 29 25 22 18 12 7 1 355 348 340 336 334 326
126 125 139 141 241 193 216 262 214 185 174 161 175 184 173 140 123 147 244 261 120 130 164 167 247 269 256 204 213 222 192 188 183 165 165 172 173 180 190 190 172 113 93 83 78 70 58 56 54 54 59 62 62 61 60 60 59 57 56 53 51 49 47 45 44 43 42 41 40 37 34 31 28 25 22 19 16 13 10 6 1 355 348 345 342 335
126 105 112 150 208 204 256 280 207 213 224 136 199 195 160 152 135 146 202 224 126 113 145 123 229 272 264 209 222 245 211 197 194 167 159 165 177 188 196 205 199 86 90 89 87 75 62 59 55 53 54 56 57 57 57 56 55 53 50 49 48 46 44 43 41 41 40 39 39 36 33 30 28 26 23 20 17 13 9 6 2 358 353 349 346 343
123 103 103 50 305 311 318 334 35 335 66 152 234 191 153 179 143 143 180 169 137 164 145 86 278 268 276 266 243 254 241 214 203 172 163 164 180 200 200 205 360 60 75 76 79 70 63 63 58 53 50 50 51 52 54 54 53 51 48 47 45 43 42 41 40 40 39 38 38 35 32 30 27 25 23 20 18 14 11 8 4 1 356 351 348 346
181 148 125 108 33 2 347 348 335 306 225 203 225 183 158 127 95 100 126 99 125 200 158 145 236 254 271 307 328 290 192 179 190 200 180 171 181 197 194 185 25 52 64 63 63 56 53 52 51 49 46 45 47 48 52 53 52 50 46 42 40 39 40 40 38 38 36 36 35 33 31 28 26 23 21 18 16 13 11 9 6 4 360 355 351 349
170 170 151 146 159 188 203 209 225 213 185 212 210 180 177 147 138 150 115 105 220 220 160 167 225 256 280 335 11 133 166 173 199 228 228 201 196 194 179 144 60 66 64 54 50 47 47 46 47 49 46 44 44 46 49 51 50 48 44 40 36 34 35 36 36 36 34 33 31 29 27 25 23 21 19 17 15 12 10 8 5 4 1 357 354 351
127 183 189 182 193 201 194 196 181 130 144 189 185 174 177 169 163 136 107 172 198 151 182 216 194 197 254 289 226 185 182 186 199 210 216 208 208 214 204 176 106 93 76 57 51 48 53 56 51 50 47 42 39 41 46 47 45 43 40 38 35 33 32 33 33 33 33 30 28 26 24 21 20 18 16 14 13 11 9 7 5 3 1 358 354 352
104 200 206 197 213 213 170 179 171 139 163 182 167 167 175 173 161 150 184 206 147 123 236 231 170 186 234 234 208 195 190 203 207 200 199 196 197 203 180 111 108 106 88 83 77 19 335 341 48 59 54 41 35 39 44 43 40 37 34 32 31 31 31 30 30 30 29 27 25 22 20 18 16 14 12 10 9 7 6 5 4 2 1 358 355 352
132 204 206 189 216 219 124 169 180 157 166 171 168 175 175 172 172 184 211 207 152 185 238 195 162 204 225 212 208 200 192 199 202 198 196 187 176 159 129 114 127 137 130 143 190 255 251 242 216 143 109 40 37 37 38 36 32 31 29 27 26 26 28 28 28 27 25 23 21 18 15 13 12 10 9 6 5 4 2 1 0 359 358 357 355 353
153 207 185 169 207 219 142 176 176 150 146 166 184 184 174 179 186 194 214 209 187 214 231 151 179 220 215 197 209 206 195 186 180 188 192 180 163 141 137 143 156 173 178 183 201 221 225 219 197 170 71 44 39 33 29 27 25 24 22 22 23 23 26 26 24 24 22 19 17 14 11 9 8 7 5 3 2 1 359 358 357 356 355 354 352 351
194 210 152 138 192 242 295 98 128 121 135 170 195 192 183 190 196 205 217 209 199 228 222 137 208 245 233 208 216 206 175 126 146 193 202 196 175 153 159 168 174 185 190 190 201 212 213 200 166 79 45 40 34 28 23 19 19 20 18 20 21 22 23 24 22 21 19 15 13 10 8 6 5 4 2 0 359 357 356 355 354 353 351 350 349 348
170 185 65 103 171 250 316 108 122 81 65 55 235 206 196 198 201 210 215 188 187 216 207 167 238 250 214 200 223 202 150 152 186 200 204 214 198 170 171 178 182 185 183 187 194 193 188 162 74 44 38 35 29 25 20 14 14 16 17 18 19 21 22 21 20 18 15 12 9 7 5 3 2 1 360 358 356 354 353 352 351 350 348 347 346 345
148 147 118 134 177 254 317 118 125 91 73 271 248 210 198 203 204 203 224 216 204 204 190 198 233 233 166 178 210 208 179 192 203 199 197 209 201 185 180 176 177 180 176 175 172 145 103 62 48 41 37 32 27 24 19 15 14 13 15 18 18 19 20 19 17 15 12 10 7 5 4 1 360 359 357 355 353 351 351 349 348 347 346 344 343 342
136 139 158 157 157 249 295 59 108 122 204 235 240 190 184 194 194 190 214 222 212 203 199 226 242 195 157 178 197 205 207 205 195 191 196 193 182 183 183 175 171 167 156 148 129 90 60 50 47 43 41 36 30 27 23 19 17 14 16 18 17 17 16 14 13 10 8 7 5 3 1 358 357 356 354 352 350 348 348 346 345 344 343 341 340 339
143 138 152 131 119 159 288 78 127 201 227 246 302 202 186 191 189 196 219 227 212 207 226 254 249 196 178 191 200 210 216 194 108 164 192 187 175 167 163 165 162 146 134 127 117 99 67 54 48 41 40 38 32 28 24 20 18 17 18 18 16 15 12 10 8 6 4 3 1 359 357 354 353 352 350 348 347 345 344 343 342 341 339 338 337 336
148 146 136 122 128 132 128 160 193 231 261 280 298 291 175 150 154 191 240 254 224 201 211 231 231 201 180 205 223 237 207 116 66 55 136 176 166 152 150 157 155 144 142 142 130 111 84 64 55 44 39 39 34 27 21 16 16 16 16 16 13 11 8 5 4 1 359 357 355 354 352 350 347 346 345 343 342 340 340 339 338 337 335 333 332 332
142 149 139 162 179 143 151 201 241 310 308 264 249 238 165 143 153 173 221 252 229 199 200 221 223 182 169 200 210 141 112 107 44 310 261 213 155 135 137 142 144 142 137 132 121 106 93 79 66 54 47 47 38 24 17 14 13 14 13 12 9 6 3 0 359 356 353 351 349 348 346 344 342 340 339 338 337 336 335 334 333 332 331 329 328 327
130 154 158 180 189 126 131 195 262 266 255 236 223 224 190 167 165 162 182 255 242 196 194 211 207 172 167 185 181 155 122 128 225 240 218 207 189 131 120 124 132 131 121 118 115 103 91 79 70 61 51 47 36 22 16 13 11 10 9 7 4 1 357 354 353 350 346 344 342 341 340 338 337 336 335 333 333 332 331 330 329 328 327 326 324 323
88 72 122 151 174 138 159 197 196 218 244 223 198 210 186 157 138 119 130 271 247 183 188 200 192 174 180 185 172 155 147 188 231 228 184 183 187 152 134 127 120 114 107 103 98 88 74 61 63 59 44 35 27 18 12 9 7 6 3 0 359 357 353 349 346 343 339 336 335 334 334 334 333 332 332 330 329 328 327 327 325 324 324 323 321 320
129 105 136 171 196 185 190 214 221 234 255 211 196 201 179 155 124 109 204 262 220 175 180 183 185 193 194 180 162 163 180 206 230 212 163 159 156 140 133 122 112 108 101 94 84 73 62 50 47 43 35 26 18 11 6 2 1 1 356 353 353 354 350 343 338 335 331 329 329 328 329 329 328 328 327 326 325 324 324 323 322 321 321 320 319 318
155 164 186 196 202 199 200 216 254 261 240 214 202 185 161 140 118 155 220 236 192 186 188 176 187 199 183 162 166 186 197 208 201 159 141 134 134 130 122 117 113 105 98 94 84 68 59 48 40 38 31 22 12 6 1 355 354 352 349 347 348 348 342 335 332 330 327 326 325 325 324 324 325 324 323 323 323 322 320 320 319 318 318 318 317 316
171 173 193 195 198 205 208 215 250 265 235 169 141 156 160 149 173 210 222 219 178 193 200 178 190 186 158 164 182 185 153 106 122 130 128 131 137 134 128 122 114 103 97 91 72 55 43 32 30 29 22 15 7 2 357 351 348 345 340 340 343 339 333 330 329 327 325 324 324 323 322 322 322 322 321 321 323 321 318 318 318 317 317 316 316 314
173 174 190 188 188 194 199 203 220 252 224 134 119 107 219 194 206 205 173 79 178 179 161 171 187 173 159 165 164 135 122 123 125 123 125 133 133 129 128 122 110 101 93 79 60 41 19 11 12 9 7 7 4 1 358 349 341 336 332 334 336 331 327 328 327 325 323 323 322 322 322 321 321 321 320 321 322 320 317 317 318 317 316 315 314 312
183 183 185 190 198 193 195 208 209 202 183 158 147 171 205 198 194 168 152 152 204 183 169 172 181 183 170 155 143 141 138 134 133 132 130 132 132 127 120 112 107 103 90 74 59 30 5 357 352 350 356 3 1 359 357 346 335 330 330 332 331 327 326 327 326 324 322 322 321 321 321 320 319 318 318 319 320 318 315 315 316 315 313 312 310 307
206 197 174 172 197 193 187 218 227 186 192 194 172 166 197 193 164 142 146 148 181 191 178 168 174 179 162 144 141 145 146 144 146 143 136 136 135 123 113 108 107 103 90 75 59 21 354 345 340 339 344 352 354 351 346 344 339 333 331 331 329 327 328 328 326 325 323 322 321 321 320 318 316 316 316 317 317 314 312 312 312 311 310 309 306 302
249 206 136 134 187 209 204 204 211 226 239 231 194 55 127 202 160 152 149 153 185 184 172 171 172 163 155 151 145 144 153 153 145 138 135 133 125 114 112 110 106 100 87 65 41 359 340 341 338 333 335 341 346 345 343 345 344 335 329 329 328 328 329 329 328 326 324 322 321 320 320 318 315 315 316 315 313 311 308 307 306 306 306 304 302 299
292 191 150 162 194 207 216 208 198 224 258 253 253 343 258 237 224 195 193 206 191 168 157 161 157 149 153 157 148 146 155 150 139 136 134 126 123 121 115 111 105 90 61 40 11 340 338 349 345 336 333 336 342 344 342 342 342 338 334 334 335 335 333 332 330 325 321 320 319 318 319 318 315 315 314 313 311 309 307 305 303 301 300 299 298 297
245 163 157 208 205 195 216 234 245 289 288 268 238 221 215 208 200 179 180 165 129 118 116 122 134 144 153 156 145 141 145 146 142 140 135 127 125 119 113 114 113 93 39 345 331 341 352 352 343 339 335 335 339 339 337 339 343 344 343 343 345 343 336 331 327 320 317 317 316 315 315 313 311 310 309 307 308 306 303 303 301 297 295 295 294 292
170 161 178 196 197 217 276 260 271 340 307 269 235 225 218 190 159 133 125 132 126 122 115 100 91 118 137 145 145 136 133 141 142 133 131 133 123 118 123 129 140 182 256 305 334 351 351 341 340 339 334 332 334 335 338 345 348 349 351 353 350 342 332 326 323 318 316 315 312 310 310 308 306 305 304 303 304 303 300 299 296 292 292 295 295 291
157 182 183 159 164 213 239 216 176 168 249 245 227 214 196 168 155 147 147 150 147 144 136 116 87 70 93 116 138 137 133 136 132 126 128 131 128 135 146 154 173 210 241 331 342 337 338 341 339 335 334 336 340 344 347 349 352 356 360 355 340 329 326 325 322 318 316 315 311 307 307 305 303 303 303 302 303 304 303 302 298 291 288 293 295 293
189 192 174 163 190 221 226 209 187 192 231 238 211 186 171 167 166 160 162 165 158 155 150 139 128 116 93 82 112 134 138 139 138 136 132 132 140 148 155 167 184 201 282 332 337 337 337 341 343 344 346 348 350 350 349 349 354 357 349 332 322 324 327 327 321 316 315 313 310 309 308 305 303 304 304 303 304 305 306 306 306 302 295 291 292 293